Regional Weather Roundup
Issued by NWS

Home | Current Version | Previous Version | Text Only | Print | Product List | Glossary Off
Versions: 1 2 3 4 5 6 7 8 9 10 11 12 13 14 15 16 17 18 19 20 21 22 23 24 25 26 27 28 29 30 31 32 33 34 35 36 37 38 39 40 41 42 43 44 45 46 47 48 49 50

000
ASUS43 KLSX 281207
RWRMO

WEATHER SUMMARY FOR MISSOURI
NATIONAL WEATHER SERVICE SPRINGFIELD MO
600 AM CST WED JAN 28 2015

NOTE: "FAIR" INDICATES FEW OR NO CLOUDS BELOW 12,000 FEET WITH NO
       SIGNIFICANT WEATHER AND/OR OBSTRUCTIONS TO VISIBILITY.
       CURRENT SKY AND/OR WEATHER CONDITIONS ARE NOT AVAILABLE FOR
       CHILLICOTHE AND FARMINGTON.

MOZ001>031-035>038-043-044-053-054-281300-
...NORTHERN AND WESTERN MISSOURI...

CITY           SKY/WX    TMP DP  RH WIND       PRES   REMARKS
KANSAS CTY INT PTCLDY    40  30  67 SE12      29.94F
6HR MIN TEMP:  39; 6HR MAX TEMP:  42;

KANSAS C DTWN  PTCLDY    43  29  57 CALM      29.96F
6HR MIN TEMP:  39; 6HR MAX TEMP:  47;

LEE`S SUMMIT   CLEAR     41  30  65 S12G20    29.97S
6HR MIN TEMP:  41; 6HR MAX TEMP:  42;

ST JOSEPH      PTCLDY    36  29  75 SE8       29.95S WCI  30
6HR MIN TEMP:  36; 6HR MAX TEMP:  41;

CHILLICOTHE      N/A     33  29  85 SE9       30.03F WCI  25
6HR MIN TEMP:  33; 6HR MAX TEMP:  35;

KIRKSVILLE     PTCLDY    28  27  96 E10       30.09F FOG     WCI  19
6HR MIN TEMP:  28; 6HR MAX TEMP:  29;


$$
MOZ066>068-077>081-088>096-101>105-281300-
...SOUTHWEST MISSOURI...

CITY           SKY/WX    TMP DP  RH WIND       PRES   REMARKS
SPRINGFIELD    CLEAR     39  33  79 S15G30    30.06S
6HR MIN TEMP:  39; 6HR MAX TEMP:  47;

JOPLIN         CLEAR     49  31  49 S12       30.02S
6HR MIN TEMP:  48; 6HR MAX TEMP:  50;


$$
MOZ032>034-039>042-045>050-055>058-069>072-281300-
...CENTRAL MISSOURI...

CITY           SKY/WX    TMP DP  RH WIND       PRES   REMARKS
COLUMBIA       CLEAR     31  28  89 SE14      30.09F WCI  21
6HR MIN TEMP:  31; 6HR MAX TEMP:  35;

JEFFERSON CITY CLEAR     32  28  85 E12       30.13S WCI  23
6HR MIN TEMP:  32; 6HR MAX TEMP:  38;

ROLLA          CLEAR     32  27  81 SE16      30.11F WCI  21
6HR MIN TEMP:  31; 6HR MAX TEMP:  34;

SEDALIA        CLEAR     39  31  72 SE15      30.03F
6HR MIN TEMP:  36; 6HR MAX TEMP:  39;

WHITEMAN AFB   CLEAR     40  32  71 S13       30.00S
WARRENSBURG    CLEAR     41  32  70 SE14      29.99F
OSAGE BEACH    CLEAR     37  30  75 SE14      30.09S WCI  29

$$
MOZ051-052-059>065-281300-
...EAST CENTRAL MISSOURI...

CITY           SKY/WX    TMP DP  RH WIND       PRES   REMARKS
ST LOUIS INTL  PTCLDY    31  26  82 SE12      30.23S WCI  22
6HR MIN TEMP:  28; 6HR MAX TEMP:  31;

SPIRIT OF STL  CLEAR     29  26  89 SE5       30.21F WCI  24
6HR MIN TEMP:  26; 6HR MAX TEMP:  30;

ST CHARLES     CLEAR     29  26  89 SE12      30.23F WCI  19
6HR MIN TEMP:  27; 6HR MAX TEMP:  29;


$$
MOZ072>076-082>087-097>100-106>115-281300-
...SOUTH CENTRAL AND SOUTHEAST MISSOURI...

CITY           SKY/WX    TMP DP  RH WIND       PRES   REMARKS
CAPE GIRARDEAU CLEAR     27  25  92 E3        30.28S
6HR MIN TEMP:  25; 6HR MAX TEMP:  31;

FARMINGTON     CLEAR     27  25  93 MISG      30.25S
6HR MIN TEMP:  27; 6HR MAX TEMP:  30;

POPLAR BLUFF   CLEAR     29  26  89 CALM      30.27R
6HR MIN TEMP:  29; 6HR MAX TEMP:  36;

WEST PLAINS    CLEAR     32  28  85 SE7       30.19S WCI  26
6HR MIN TEMP:  32; 6HR MAX TEMP:  39;


$$



USA.gov is the U.S. government's official web portal to all federal, state and local government web resources and services.